Weather observations for the past three days for
Blairsville Airport
Metric (Imperial)
Date Time (edt) Wind (kph) Vis. (km) Weather Sky Cond. Temperature (ºC) Relative Humidity Wind Chill (°C) Heat Index (°C) Pressure Precipitation (cm)
Air Dwpt 6 hour altimeter (cm) sea level (mb) 1 hr 3 hr 6 hr
Max. Min.
10 02:35 Calm 3.22 Fog/Mist SCT003 BKN040 12 0 0% 76.17 0.0
10 02:15 Calm 4.83 Fog/Mist SCT003 SCT039 12 0 0% 76.17 0.0
10 01:55 Calm 6.44 Fog/Mist SCT045 12 0 18.1 12.3 0% 76.17 0.0
10 01:35 Calm 8.05 Mostly Cloudy with Haze BKN045 13 0 0% 76.17 0.0
10 01:15 Calm 8.05 Fog/Mist BKN043 BKN049 13 13 100% 76.2 0.0
10 00:55 Calm 11.27 Fog/Mist BKN042 BKN048 13.2 13.1 99% 76.2 0.0
10 00:35 Calm 11.27 Overcast BKN040 OVC046 13.4 13.3 99% 76.2 0.0
10 00:15 Calm 16.09 Partly Cloudy SCT038 13.4 13.3 99% 76.2 0.0
09 23:55 Calm 11.27 Fair CLR 13.5 13.3 99% 76.2 0.0
09 23:15 Calm 16.09 Fair CLR 14.2 13.8 97% 76.17 0.0
09 22:55 Calm 16.09 Fair CLR 14.3 13.7 96% 76.17 0.0
09 22:35 Calm 16.09 Fair CLR 14.8 13.8 94% 76.15 0.0
09 22:15 Calm 16.09 Fair CLR 15.1 13.9 93% 76.12 0.0
09 21:55 Calm 16.09 Fair CLR 15.2 13.9 92% 76.12 0.0
09 21:35 Calm 16.09 Fair CLR 16.1 14 87% 76.1 0.0
09 21:15 Calm 16.09 Fair CLR 16.3 13.9 86% 76.1 0.0
09 20:55 Calm 16.09 Fair CLR 16.2 13.7 85% 76.07 0.0
09 20:35 Calm 16.09 Fair CLR 16.7 13.6 82% 76.02 0.0
09 20:15 Calm 16.09 Fair CLR 17.5 13.7 79% 76.02 0.0
09 19:55 Calm 16.09 Partly Cloudy SCT050 18.2 13.6 21.6 18.1 75% 76.02 0.0
09 19:35 W 7 16.09 Mostly Cloudy BKN050 19 13.5 71% 76 0.0
09 19:15 Calm 16.09 Partly Cloudy SCT050 20.1 13.7 67% 75.97 0.0
09 18:35 W 7 16.09 Fair CLR 20.3 13 63% 75.97 0.0
09 18:15 Calm 16.09 Fair CLR 20.8 13 61% 75.95 0.0
09 17:55 W 7 16.09 Fair CLR 21.1 13.6 62% 75.95 0.0
09 17:35 W 9 16.09 Fair CLR 21.2 12.9 59% 75.95 0.0
09 17:15 W 9 16.09 Fair CLR 21 12.5 58% 75.95 0.0
09 16:55 W 6 16.09 Fair CLR 21.2 12.8 59% 75.92 0.0
09 16:35 NW 6 16.09 Fair CLR 21.1 12.6 58% 75.9 0.0
09 16:15 Calm 16.09 Fair CLR 20.7 12.5 60% 75.92 0.0
09 15:55 SW 9 16.09 Fair CLR 21 12.5 58% 75.95 0.0
09 15:35 NW 6 16.09 Fair CLR 21 12.9 60% 75.95 0.0
09 15:15 SW 6 16.09 Fair CLR 20.7 12.2 58% 75.95 0.0
09 14:55 W 7 16.09 Fair CLR 20.8 12.4 59% 75.95 0.0
09 14:35 W 7 16.09 Fair CLR 20.8 12 57% 75.97 0.0
09 14:15 N 6 16.09 Partly Cloudy SCT037 SCT045 20.5 11.8 58% 75.97 0.0
09 13:35 W 9 16.09 Fair CLR 20.2 11.7 58% 75.97 0.0
09 13:15 W 9 16.09 Partly Cloudy SCT028 19.8 11.7 60% 75.97 0.0
09 12:55 W 7 16.09 Mostly Cloudy BKN026 BKN036 20.4 13.2 63% 76.02 0.0
09 12:35 SW 6 16.09 Mostly Cloudy BKN026 BKN032 19.9 13.3 66% 76 0.0
09 11:55 W 9 16.09 Overcast BKN024 OVC032 18.2 13.2 73% 76.05 0.0
09 11:35 E 7 16.09 Overcast BKN019 OVC028 17.8 13.6 77% 76.02 0.0
09 11:15 E 6 16.09 Overcast BKN017 OVC026 17.5 13.6 78% 76.07 0.0
09 10:55 N 6 16.09 Overcast OVC017 16.5 13.2 81% 76.05 0.0
09 10:35 Calm 16.09 Overcast BKN015 OVC021 16 13 83% 76 0.0
09 10:15 Calm 16.09 Overcast OVC017 15.6 13.1 85% 76 0.0
09 09:55 Calm 16.09 Overcast OVC015 14.7 12.5 87% 76 0.0
09 09:35 Calm 16.09 Overcast OVC017 14.1 12.4 90% 76 0.0
09 09:15 Calm 16.09 Overcast OVC017 13.4 11.8 90% 76 0.0
09 08:55 Calm 16.09 Overcast OVC019 13.1 12 93% 76 0.0
09 08:35 Calm 16.09 Overcast OVC019 12.5 11.4 93% 76 0.0
09 08:15 Calm 16.09 Overcast OVC021 12 11.2 95% 76 0.0
09 07:55 Calm 11.27 Overcast OVC021 11.6 10.9 11.7 7.9 96% 76 0.0
09 07:35 Calm 11.27 Overcast OVC023 11.4 10.8 96% 76.02 0.0
09 07:15 Calm 8.05 Fog/Mist OVC023 11 10.8 99% 76.02 0.0
09 06:55 Calm 6.44 Fog/Mist OVC023 10.5 10.4 99% 76 0.0
09 06:35 Calm 6.44 Fog/Mist OVC023 10.2 10.1 99% 76 0.0
09 06:15 Calm 11.27 Overcast OVC023 10.4 10.2 99% 76 0.0
09 05:55 Calm 8.05 Fog/Mist OVC023 10.1 10 99% 76 0.0
09 05:35 Calm 6.44 Fog/Mist BKN023 OVC075 9.9 9.8 99% 76 0.0
09 05:15 Calm 8.05 Fog/Mist BKN023 OVC075 10 9.9 99% 76 0.0
09 04:55 E 6 8.05 Fog/Mist OVC023 9.8 9.8 100% 76 0.0
09 04:35 N 6 5.63 Fog/Mist BKN023 OVC060 9 0 0% 76 0.0
09 03:55 S 6 11.27 Fog/Mist BKN060 9 9 100% 76 0.0
09 03:35 N 6 11.27 Mostly Cloudy BKN060 9 0 0% 76 0.0
09 03:15 SW 7 11.27 Mostly Cloudy with Haze BKN060 BKN070 9 0 0% 8 75.97 0.0
09 02:55 Calm 8.05 Fog/Mist SCT070 8.6 8.3 98% 76.02 0.0
09 02:35 Calm 11.27 Fair CLR 8.9 8.8 99% 76.05 0.0
09 02:15 Calm 16.09 Fair CLR 8.9 8.8 99% 76.07 0.0
09 01:55 W 7 16.09 Partly Cloudy SCT100 9.3 9.2 16.2 9.2 99% 9 76.1 0.0
09 01:35 Calm 16.09 Fair CLR 9.6 9.3 98% 76.1 0.0
09 01:15 Calm 16.09 Partly Cloudy SCT027 9.9 9.6 98% 76.1 0.0
09 00:55 Calm 16.09 Mostly Cloudy BKN029 9.9 9.6 98% 76.12 0.0
09 00:35 W 6 16.09 Mostly Cloudy BKN031 10.4 9.7 95% 76.12 0.0
09 00:15 W 6 16.09 Partly Cloudy SCT029 10.4 9.6 95% 76.12 0.0
08 23:55 Calm 16.09 Fair CLR 10.7 9.6 93% 76.15 0.0
08 23:35 Calm 16.09 Partly Cloudy SCT029 10.7 9.6 93% 76.15 0.0
08 23:15 Calm 16.09 Partly Cloudy SCT029 SCT033 10.8 9.2 90% 76.17 0.0
08 22:55 N 6 16.09 Partly Cloudy SCT029 11.5 9.4 87% 76.17 0.0
08 22:35 N 6 16.09 Fair CLR 12 9.2 83% 76.17 0.0
08 22:15 NE 6 16.09 Fair CLR 12.9 9.2 78% 76.15 0.0
08 21:55 E 6 16.09 Fair CLR 13.1 9.2 77% 76.15 0.0
08 21:35 NE 7 16.09 Fair CLR 13.3 9 75% 76.15 0.0
08 21:15 NE 6 16.09 Fair CLR 13.9 8.9 72% 76.15 0.0
08 20:55 E 6 16.09 Fair CLR 13.6 9.7 77% 76.15 0.0
08 20:35 Calm 16.09 Fair CLR 15.3 8.1 62% 76.15 0.0
08 20:15 SE 6 16.09 Fair CLR 15.8 8.1 60% 76.12 0.0
08 19:55 S 11 16.09 Fair CLR 16.1 8 21.3 16 59% 76.12 0.0
08 19:35 S 11 16.09 Fair CLR 16.5 8.2 58% 76.12 0.0
08 19:15 S 9 16.09 Fair CLR 16.8 8.5 58% 76.12 0.0
08 18:55 SW 11 16.09 Fair CLR 17.2 8.8 58% 76.12 0.0
08 18:35 S 11 16.09 Fair CLR 17.8 8.2 54% 76.12 0.0
08 18:15 S 17 16.09 Fair CLR 18.4 8.8 54% 76.1 0.0
08 17:55 S 11 16.09 Fair CLR 18.6 9 54% 76.12 0.0
08 17:35 SW 7 16.09 Fair CLR 18.8 9 53% 76.1 0.0
08 17:15 S 13 16.09 Fair CLR 19.1 8.7 51% 76.1 0.0
08 16:55 SW 11 11.27 Fair CLR 19.6 8.8 50% 76.12 0.0
08 16:35 S 13 11.27 Fair CLR 20.3 8.6 47% 76.1 0.0
08 16:15 SW 6 11.27 Fair CLR 20.1 8.3 47% 76.12 0.0
08 15:55 SW 9 11.27 Fair CLR 20.3 8.2 46% 76.15 0.0
08 15:35 SW 7 11.27 Partly Cloudy with Haze SCT060 20.1 7 43% 76.15 0.0
08 15:15 E 6 11.27 Fair with Haze CLR 21.1 7.6 42% 76.17 0.0
08 14:55 SW 7 11.27 Fair with Haze CLR 20.2 6.7 42% 76.2 0.0
08 14:35 S 6 11.27 Fair CLR 20.4 8.9 48% 76.23 0.0
08 14:15 E 7 11.27 Fair CLR 20.3 5.2 37% 76.23 0.0
08 13:55 SE 13 11.27 Fair CLR 20 6.4 20.5 6.6 41% 76.25 0.0
08 13:35 S 13 11.27 Fair CLR 20.3 7.4 43% 76.25 0.0
08 13:15 W 7 11.27 Fair CLR 19.5 6.8 44% 76.25 0.0
08 12:55 S 7 11.27 Fair CLR 19.5 6.8 44% 76.3 0.0
08 12:35 E 6 11.27 Fair CLR 18.9 6.1 43% 76.33 0.0
08 12:15 W 7 11.27 Fair CLR 18.4 5.5 43% 76.33 0.0
08 11:55 SE 11 11.27 Fair CLR 18.6 5.7 43% 76.35 0.0
08 11:35 SE 9 11.27 Fair CLR 18.2 6.8 48% 76.35 0.0
08 11:15 Calm 11.27 Fair CLR 15.9 8.5 62% 76.38 0.0
08 10:55 SE 6 16.09 Fair CLR 14.6 10.1 75% 76.38 0.0
08 10:35 Calm 16.09 Fair CLR 13.5 9 74% 76.4 0.0
08 10:15 Calm 16.09 Fair CLR 12 9.8 87% 76.4 0.0
08 09:55 Calm 11.27 Fair CLR 10.6 10 96% 76.4 0.0
08 09:15 Calm 8.05 Overcast with Haze OVC002 9 0 0% 76.43 0.0
08 08:35 Calm 0.24 Fog OVC002 8 0 0% 76.43 0.0
08 08:15 Calm 0.24 Fog OVC002 7 0 0% 76.4 0.0
08 07:55 Calm 0.24 Fog OVC002 7 0 8.9 5.3 0% 76.4 0.0
08 07:35 Calm 0.24 Fog OVC002 6 0 0% 76.35 0.0
08 07:15 Calm 0.24 Fog OVC002 6 0 0% 76.35 0.0
08 06:55 Calm 1.21 Fog/Mist OVC002 6 0 0% 76.3 0.0
08 06:35 Calm 1.21 Fog/Mist BKN002 6 0 0% 76.25 0.0
08 06:15 Calm 2.41 Fog/Mist VV007 6 0 0% 76.25 0.0
08 05:55 Calm 3.22 Fog/Mist VV007 6 0 0% 76.25 0.0
08 05:35 Calm 2.01 Fog/Mist BKN001 6 0 0% 76.25 0.0
08 05:15 Calm 1.61 Fog/Mist BKN001 6 0 0% 76.23 0.0
08 04:55 Calm 2.01 Fog/Mist SCT002 6 0 0% 76.23 0.0
08 04:35 Calm 1.21 Fog/Mist BKN002 6 0 0% 76.23 0.0
08 04:15 W 6 8.05 Fair with Haze CLR 7 0 0% 76.23 0.0
08 03:35 W 6 0.40 Fog OVC002 7 0 0% 76.23 0.0
08 03:15 Calm 0.40 Fog OVC002 7 0 0% 76.23 0.0
08 02:55 Calm 0.80 Fog OVC002 7 0 0% 76.23 0.0
08 02:35 Calm 0.40 Fog OVC002 8 0 0% 76.23 0.0
08 02:15 Calm 4.83 Fog/Mist CLR 8 0 0% 76.23 0.0
08 01:55 Calm 11.27 Fair CLR 9 0 14 8.3 0% 76.23 0.0
08 01:35 Calm 8.05 Fair with Haze CLR 9 0 0% 76.23 0.0
08 01:15 Calm 5.63 Fog/Mist SCT027 9 0 0% 76.23 0.0
08 00:55 Calm 5.63 Fog/Mist SCT029 9 0 0% 76.23 0.0
08 00:35 SW 6 5.63 Fog/Mist SCT031 9 0 0% 76.2 0.0
08 00:15 Calm 6.44 Partly Cloudy with Haze SCT029 10 0 0% 76.2 0.0
07 23:55 Calm 8.05 Mostly Cloudy with Haze BKN029 BKN036 10 0 0% 76.2 0.0
07 23:35 Calm 11.27 Fog/Mist SCT031 SCT038 9.8 9.8 100% 76.2 0.0
07 22:55 Calm 11.27 Fog/Mist CLR 10.1 10.1 100% 76.2 0.0
07 22:35 Calm 11.27 Fair CLR 10.1 10 99% 76.2 0.0
07 22:15 Calm 11.27 Fair CLR 10.5 10.4 99% 76.2 0.0
07 21:55 S 6 16.09 Fair CLR 10.5 9.9 96% 76.17 0.0
07 21:35 SW 6 16.09 Fair CLR 11.2 9.9 92% 76.15 0.0
07 21:15 Calm 16.09 Fair CLR 11.4 10.1 92% 76.15 0.0
07 20:55 Calm 16.09 Fair CLR 12.1 9.8 86% 76.15 0.0
07 20:35 Calm 16.09 Fair CLR 13.2 9.6 79% 76.12 0.0
07 20:15 W 6 16.09 Fair CLR 13.7 9.8 77% 76.1 0.0
07 19:55 W 6 16.09 Partly Cloudy SCT029 SCT044 13.9 10.1 17.4 13.8 78% 76.1 0.0
07 19:35 Calm 16.09 Partly Cloudy SCT046 14.3 10.2 77% 76.1 0.0
07 19:15 NW 6 16.09 Partly Cloudy SCT044 14.8 10 73% 76.07 0.0
07 18:55 NW 6 16.09 Mostly Cloudy BKN044 15 10.2 73% 76.1 0.0
07 18:35 NW 7 16.09 Mostly Cloudy SCT022 BKN042 15 10.3 74% 76.07 0.0
07 18:15 NW 6 16.09 Overcast BKN037 OVC042 14.9 10.2 74% 76.07 0.0
07 17:55 NW 9 16.09 Overcast OVC037 15 10 72% 76.07 0.0
07 17:35 NW 9 16.09 Overcast OVC037 15 10.4 74% 76.05 0.0
07 17:15 NW 9 16.09 Overcast SCT016 SCT024 OVC034 14.7 10.8 78% 76.05 0.0
07 16:55 NW 17 16.09 Overcast SCT016 BKN025 OVC034 15.1 11.4 79% 76.02 0.0
07 16:35 NW 13 16.09 Overcast BKN020 BKN028 OVC036 15.5 11.4 77% 76 0.0
07 16:15 N 6 16.09 Overcast BKN020 BKN024 OVC031 15.9 11.9 77% 76 0.0
07 15:55 NW 9 16.09 Overcast BKN020 BKN029 OVC037 16.2 12.7 80% 76 0.0
07 15:35 NW 6 16.09 Overcast BKN024 OVC031 16.2 12.8 80% 76 0.0
07 15:15 NW 6 16.09 Overcast BKN017 OVC024 16.1 12.5 79% 76 0.0
07 14:55 NW 6 16.09 Overcast BKN019 OVC024 16.1 12.8 81% 76 0.0
07 14:35 W 9 11.27 Overcast BKN019 BKN024 OVC043 16.8 13.2 79% 76.02 0.0
07 14:15 W 9 16.09 Overcast BKN018 BKN022 OVC043 16.3 12.4 78% 76.02 0.0
07 13:55 NW 6 16.09 Overcast SCT009 BKN016 OVC042 15.9 12.8 19.2 14.4 82% 76.02 0.0 0.2
07 13:35 N 9 16.09 Overcast BKN009 OVC013 14.8 13.1 90% 76.05 0.0
07 13:15 NW 9 16.09 Overcast BKN009 OVC016 14.6 12.9 90% 76.07 0.0
07 12:55 NW 13 16.09 Overcast SCT009 OVC016 15.8 13.8 88% 76.02 0.0 0.03
07 12:35 NW 11 16.09 Overcast BKN018 BKN025 OVC043 17.5 14.3 82% 76 0.0
07 12:15 W 13 16.09 Mostly Cloudy SCT014 SCT021 BKN043 18.7 14.6 77% 75.95 0.0
07 11:55 W 13 16.09 Mostly Cloudy SCT015 BKN022 BKN031 18.3 15.2 82% 75.97 0.0
07 11:35 W 13 16.09 Overcast SCT011 BKN022 OVC031 18.9 16.2 84% 75.97 0.0
07 11:15 NW 9 16.09 Overcast SCT011 BKN017 OVC032 17.6 15.6 88% 75.95 0.0
07 10:55 NW 6 16.09 Overcast SCT009 BKN022 OVC031 17 15.8 93% 75.97 0.0 0.18
07 10:35 W 9 16.09 Overcast SCT011 BKN015 OVC022 16.5 16 97% 75.97 0.0
07 10:15 Calm 16.09 Light Rain OVC015 16.4 15.6 95% 76 0.0
07 09:55 W 6 16.09 Overcast BKN008 BKN012 OVC017 16.4 15.3 93% 75.97 0.0
07 09:35 Calm 16.09 Overcast BKN004 OVC011 16.5 15.8 96% 75.92 0.0
07 09:15 N 6 16.09 Overcast BKN004 BKN017 OVC120 16 0 0% 75.9 0.0
07 08:55 Calm 11.27 Light Rain SCT006 SCT027 BKN085 15 0 0% 75.9 0.0 0.18
07 08:35 Calm 6.44 Rain SCT012 BKN050 OVC110 15 0 0% 75.95 0.0 0.13
07 08:15 Calm 11.27 Light Rain SCT005 BKN013 OVC110 15 0 0% 75.97 0.0 0.08
07 07:55 W 6 6.44 Rain SCT005 BKN016 OVC095 15 0 15.6 14.8 0% 75.95 0.0 0.15 1.19
07 07:35 Calm 8.05 Light Rain SCT005 BKN011 OVC095 15 0 0% 75.92 0.0 0.05
07 06:55 Calm 11.27 Light Rain BKN003 OVC010 15 0 0% 75.92 0.0 0.36
07 06:35 E 6 5.63 Rain Fog/Mist BKN003 OVC012 15 0 0% 75.92 0.0 0.3
07 06:15 N 6 11.27 Heavy Rain BKN003 OVC018 15 0 0% 76.02 0.0 0.05
07 05:55 Calm 11.27 Light Rain SCT003 BKN010 OVC018 15 0 0% 75.92 0.0 0.13
07 05:35 Calm 11.27 Light Rain BKN003 OVC018 15 0 0% 75.95 0.0
07 05:15 Calm 2.82 Light Rain Fog/Mist BKN003 BKN030 OVC070 15 0 0% 75.9 0.0
07 04:55 E 7 6.44 Light Rain SCT005 SCT042 OVC070 15 0 0% 75.9 0.0 0.23 0.56
07 04:35 NW 6 8.05 Heavy Rain SCT038 BKN070 OVC080 15 0 0% 75.95 0.0 0.08
07 04:15 Calm 8.05 Overcast with Haze SCT002 BKN070 OVC080 15 0 0% 75.87 0.0
07 03:55 NE 6 3.22 Light Rain Fog/Mist SCT002 BKN070 OVC090 15 0 0% 75.92 0.0 0.03
07 03:35 Calm 8.05 Light Rain SCT065 BKN100 15 0 0% 75.92 0.0 0.03
07 03:15 Calm 16.09 Mostly Cloudy SCT049 SCT075 BKN110 15 15 100% 75.95 0.0 0.03
Date Time (edt) Wind (kph) Vis. (km) Weather Sky Cond. Air Dwpt Max. Min. Relative Humidity Wind Chill (°C) Heat Index (°C) altimeter (cm) sea level (mb) 1 hr 3 hr 6 hr
6 hour
Temperature (ºC) Pressure Precipitation (cm)